Location: 相模原市立博物館
(35.5593°N, 139.3931°E)
Time: 20:07:19
(UTC+09:00)

ISS - Visible Passes

Search period start: 24 June 2018 00:00
Search period end: 04 July 2018 00:00
Orbit: 402 x 407 km, 51.6° (Epoch: 25 June)

Date Brightness Start Highest point End Pass type
(mag) Time Alt. Az. Time Alt. Az. Time Alt. Az.
29 Jun -1.2 03:43:17 10° SSE 03:45:06 14° SE 03:46:54 10° E visible
01 Jul -2.8 03:34:18 12° SSW 03:37:03 38° SE 03:40:08 10° ENE visible
02 Jul -1.8 02:44:20 17° SSE 02:45:03 18° SE 02:47:24 10° E visible
03 Jul -3.8 03:26:57 19° WSW 03:29:07 72° NW 03:32:24 10° NE visible
